Hourly Weather Abasolo

Today, 27 October, Tuesday

Time Temperature Precipitation Wind Pressure Humidity
00:00 +15°C° 0 mm 1 mps 619 mmHg 61%
01:00 +14°C° 0 mm 0 mps 619 mmHg 67%
02:00 +13°C° 0 mm 0 mps 618 mmHg 74%
03:00 +13°C° 0 mm 0 mps 618 mmHg 77%
04:00 +13°C° 0 mm 0 mps 618 mmHg 81%
05:00 +13°C° 0 mm 0 mps 618 mmHg 85%
06:00 +15°C° 0 mm 0 mps 620 mmHg 77%
07:00 +18°C° 0 mm 0 mps 621 mmHg 68%
08:00 +20°C° 0 mm 0 mps 622 mmHg 60%
09:00 +23°C° 0 mm 0 mps 623 mmHg 51%
10:00 +26°C° 0 mm 0 mps 624 mmHg 42%
11:00 +29°C° 0 mm 0 mps 624 mmHg 33%
12:00 +31°C° 0 mm 1 mps 623 mmHg 31%
13:00 +31°C° 0 mm 1 mps 623 mmHg 28%
14:00 +31°C° 0 mm 2 mps 622 mmHg 26%
15:00 +29°C° 0 mm 2 mps 621 mmHg 30%
16:00 +27°C° 0 mm 2 mps 621 mmHg 35%
17:00 +25°C° 0 mm 2 mps 620 mmHg 39%
18:00 +23°C° 0 mm 2 mps 620 mmHg 49%
19:00 +21°C° 0 mm 1 mps 620 mmHg 60%
20:00 +19°C° 0 mm 1 mps 620 mmHg 70%
21:00 +18°C° 0 mm 1 mps 620 mmHg 75%
22:00 +18°C° 0 mm 1 mps 619 mmHg 80%
23:00 +16°C° 0 mm 1 mps 619 mmHg 84%

Tomorrow, 28 October, Wednesday

Time Temperature Precipitation Wind Pressure Humidity
00:00 +16°C° 0 mm 1 mps 619 mmHg 87%
01:00 +15°C° 0 mm 1 mps 618 mmHg 89%
02:00 +15°C° 0 mm 1 mps 618 mmHg 91%
03:00 +14°C° 0 mm 1 mps 618 mmHg 91%
04:00 +14°C° 0 mm 1 mps 618 mmHg 92%
05:00 +13°C° 0 mm 0 mps 618 mmHg 92%
06:00 +15°C° 0 mm 0 mps 619 mmHg 82%
07:00 +18°C° 0 mm 0 mps 621 mmHg 72%
08:00 +20°C° 0 mm 0 mps 622 mmHg 61%
09:00 +23°C° 0 mm 0 mps 622 mmHg 53%
10:00 +27°C° 0 mm 1 mps 623 mmHg 44%
11:00 +30°C° 0 mm 1 mps 623 mmHg 36%
12:00 +30°C° 0 mm 2 mps 623 mmHg 33%
13:00 +31°C° 0 mm 2 mps 622 mmHg 30%
14:00 +31°C° 0 mm 2 mps 621 mmHg 27%
15:00 +29°C° 0 mm 2 mps 621 mmHg 33%
16:00 +27°C° 0 mm 2 mps 620 mmHg 38%
17:00 +25°C° 0 mm 2 mps 620 mmHg 44%
18:00 +23°C° 0 mm 2 mps 620 mmHg 51%
19:00 +21°C° 0 mm 1 mps 620 mmHg 59%
20:00 +20°C° 0 mm 1 mps 620 mmHg 66%
21:00 +19°C° 0 mm 1 mps 620 mmHg 71%
22:00 +18°C° 0 mm 1 mps 620 mmHg 76%
23:00 +16°C° 0 mm 1 mps 620 mmHg 81%

Day after tomorrow, 29 October, Thursday

Time Temperature Precipitation Wind Pressure Humidity
00:00 +15°C° 0 mm 0 mps 619 mmHg 84%
01:00 +14°C° 0 mm 0 mps 619 mmHg 87%
02:00 +14°C° 0 mm 0 mps 619 mmHg 90%
03:00 +14°C° 0 mm 0 mps 619 mmHg 90%
04:00 +13°C° 0 mm 0 mps 619 mmHg 91%
05:00 +13°C° 0 mm 0 mps 619 mmHg 92%
06:00 +15°C° 0 mm 0 mps 620 mmHg 83%
07:00 +20°C° 0 mm 1 mps 622 mmHg 73%
08:00 +22°C° 0 mm 1 mps 623 mmHg 63%
09:00 +24°C° 0 mm 1 mps 623 mmHg 54%
10:00 +27°C° 0 mm 2 mps 624 mmHg 45%
11:00 +30°C° 0 mm 2 mps 624 mmHg 35%
12:00 +30°C° 0 mm 2 mps 624 mmHg 32%
13:00 +31°C° 0 mm 2 mps 623 mmHg 29%
14:00 +32°C° 0 mm 2 mps 623 mmHg 26%
15:00 +30°C° 0 mm 2 mps 622 mmHg 31%
16:00 +28°C° 0 mm 2 mps 622 mmHg 36%
17:00 +26°C° 0 mm 2 mps 621 mmHg 41%
18:00 +24°C° 0 mm 2 mps 621 mmHg 48%
19:00 +21°C° 0 mm 2 mps 621 mmHg 54%
20:00 +19°C° 0 mm 2 mps 621 mmHg 60%
21:00 +18°C° 0 mm 2 mps 621 mmHg 68%
22:00 +17°C° 0 mm 2 mps 621 mmHg 75%
23:00 +16°C° 0 mm 2 mps 621 mmHg 82%

30 October, Friday

Time Temperature Precipitation Wind Pressure Humidity
00:00 +15°C° 0 mm 2 mps 620 mmHg 86%
01:00 +14°C° 0 mm 2 mps 620 mmHg 90%
02:00 +13°C° 0 mm 2 mps 620 mmHg 94%
03:00 +13°C° 0 mm 1 mps 620 mmHg 94%
04:00 +13°C° 0 mm 1 mps 620 mmHg 95%
05:00 +12°C° 0 mm 1 mps 620 mmHg 95%
06:00 +14°C° 0 mm 2 mps 621 mmHg 84%
07:00 +16°C° 0 mm 2 mps 622 mmHg 74%
08:00 +18°C° 0 mm 2 mps 623 mmHg 63%
09:00 +21°C° 0 mm 2 mps 624 mmHg 54%
10:00 +24°C° 0 mm 2 mps 624 mmHg 44%
11:00 +27°C° 0 mm 2 mps 625 mmHg 35%
12:00 +28°C° 0 mm 2 mps 624 mmHg 31%
13:00 +29°C° 0 mm 2 mps 624 mmHg 28%
14:00 +29°C° 0 mm 2 mps 623 mmHg 25%
15:00 +27°C° 0 mm 2 mps 623 mmHg 29%
16:00 +26°C° 0 mm 2 mps 623 mmHg 33%
17:00 +24°C° 0 mm 2 mps 622 mmHg 37%
18:00 +22°C° 0 mm 1 mps 622 mmHg 44%
19:00 +20°C° 0 mm 1 mps 622 mmHg 51%
20:00 +18°C° 0 mm 1 mps 622 mmHg 58%
21:00 +16°C° 0 mm 1 mps 622 mmHg 62%
22:00 +15°C° 0 mm 1 mps 622 mmHg 67%
23:00 +14°C° 0 mm 1 mps 621 mmHg 72%

31 October, Saturday

Time Temperature Precipitation Wind Pressure Humidity
00:00 +14°C° 0 mm 1 mps 621 mmHg 76%
01:00 +13°C° 0 mm 1 mps 621 mmHg 80%
02:00 +12°C° 0 mm 1 mps 620 mmHg 84%
03:00 +12°C° 0 mm 1 mps 620 mmHg 86%
04:00 +12°C° 0 mm 1 mps 620 mmHg 88%
05:00 +11°C° 0 mm 1 mps 620 mmHg 90%
06:00 +14°C° 0 mm 1 mps 621 mmHg 79%
07:00 +16°C° 0 mm 1 mps 622 mmHg 68%
08:00 +19°C° 0 mm 1 mps 624 mmHg 57%
09:00 +23°C° 0 mm 1 mps 624 mmHg 48%
10:00 +26°C° 0 mm 1 mps 625 mmHg 38%
11:00 +30°C° 0 mm 1 mps 626 mmHg 29%
12:00 +30°C° 0 mm 1 mps 625 mmHg 26%
13:00 +30°C° 0 mm 1 mps 625 mmHg 24%
14:00 +31°C° 0 mm 2 mps 624 mmHg 22%
15:00 +28°C° 0 mm 1 mps 623 mmHg 25%
16:00 +26°C° 0 mm 1 mps 623 mmHg 29%
17:00 +24°C° 0 mm 1 mps 622 mmHg 33%
18:00 +22°C° 0 mm 1 mps 622 mmHg 37%
19:00 +21°C° 0 mm 1 mps 622 mmHg 41%
20:00 +19°C° 0 mm 1 mps 622 mmHg 44%
21:00 +18°C° 0 mm 1 mps 622 mmHg 49%
22:00 +16°C° 0 mm 1 mps 622 mmHg 53%
23:00 +14°C° 0 mm 0 mps 622 mmHg 57%

1 November, Sunday

Time Temperature Precipitation Wind Pressure Humidity
00:00 +15°C° 0 mm 1 mps 622 mmHg 63%
01:00 +14°C° 0 mm 1 mps 621 mmHg 68%
02:00 +14°C° 0 mm 1 mps 621 mmHg 73%
03:00 +13°C° 0 mm 1 mps 621 mmHg 79%
04:00 +13°C° 0 mm 1 mps 621 mmHg 84%
05:00 +12°C° 0 mm 1 mps 621 mmHg 89%
06:00 +15°C° 0 mm 1 mps 622 mmHg 80%
07:00 +18°C° 0 mm 1 mps 624 mmHg 71%
08:00 +19°C° 0 mm 2 mps 625 mmHg 62%
09:00 +23°C° 0 mm 2 mps 625 mmHg 53%
10:00 +25°C° 0 mm 2 mps 626 mmHg 44%
11:00 +28°C° 0 mm 3 mps 626 mmHg 35%
12:00 +28°C° 0 mm 3 mps 626 mmHg 32%
13:00 +29°C° 0 mm 3 mps 625 mmHg 30%
14:00 +30°C° 0 mm 3 mps 625 mmHg 28%
15:00 +28°C° 0 mm 4 mps 625 mmHg 33%
16:00 +26°C° 0 mm 4 mps 624 mmHg 39%
17:00 +23°C° 0 mm 5 mps 624 mmHg 44%
18:00 +20°C° 0 mm 4 mps 624 mmHg 54%
19:00 +18°C° 0 mm 4 mps 624 mmHg 65%
20:00 +14°C° 0 mm 3 mps 623 mmHg 75%
21:00 +14°C° 0 mm 3 mps 623 mmHg 78%
22:00 +13°C° 0 mm 3 mps 623 mmHg 80%
23:00 +13°C° 0 mm 2 mps 623 mmHg 82%
Show more